GEFSSGP_con_probscp_174.txt.gz
Probability
3 2 2 3 2 1 0 0 0 0 0 0 0 0 0 0 0 0 0 0 0 0 0 0 0 0 0 0 1 2 2 1 0 0 0 0 0 0 0 0 0 0 0 0 0 0 0 0 0
2 2 1 2 1 0 0 0 0 0 0 0 0 0 0 0 0 0 0 0 0 0 0 0 0 0 0 0 0 1 1 0 0 0 0 0 0 0 0 0 0 0 0 0 0 0 0 0 0
1 2 2 1 0 0 0 0 0 0 0 0 0 0 0 0 0 0 0 0 0 0 0 0 0 0 0 0 0 0 0 0 0 0 0 0 0 0 0 0 0 0 0 0 0 0 0 0 0
2 3 3 1 0 0 0 0 0 0 0 0 0 0 0 0 0 0 0 0 0 0 0 0 0 0 0 0 0 0 0 0 0 0 0 0 0 0 0 0 0 0 0 0 0 0 0 0 0
3 4 2 0 0 0 0 0 0 0 0 0 0 0 0 0 0 0 0 0 0 0 0 0 0 0 0 0 0 0 0 0 0 0 0 0 0 0 0 0 0 0 0 0 0 0 0 0 0
4 3 1 0 0 0 0 0 0 0 0 0 0 0 0 0 0 0 0 0 0 0 1 1 1 0 0 0 0 0 0 0 0 0 0 0 0 0 0 0 0 0 0 0 0 0 0 0 0
3 2 0 0 0 0 0 0 0 0 0 0 0 0 0 0 0 0 0 0 0 0 1 1 1 0 0 0 0 0 0 0 0 0 0 0 0 0 0 0 0 0 0 0 0 0 0 0 0
1 0 0 0 0 0 0 0 0 0 0 0 0 0 2 3 2 0 0 0 0 0 0 0 0 0 0 0 0 0 0 0 0 0 0 0 0 0 0 0 0 0 0 0 0 0 0 0 0
0 0 0 0 0 0 0 0 0 0 0 0 0 1 4 7 5 1 0 0 0 0 0 0 0 0 0 0 0 0 0 0 0 0 0 0 0 0 0 0 0 0 0 0 0 0 0 0 0
0 0 0 0 0 0 0 0 0 0 0 0 1 5 10 12 8 4 1 0 0 0 0 0 1 1 1 0 0 0 0 0 0 0 0 0 0 0 0 0 0 0 0 0 0 0 0 0 0
0 0 0 0 0 0 0 1 1 1 1 1 4 12 18 15 10 5 2 0 0 0 0 0 1 2 1 1 1 1 1 0 0 0 0 0 0 0 0 0 0 0 0 0 0 0 0 0 0
0 0 0 0 0 0 0 1 2 2 2 2 7 16 20 15 9 4 2 2 2 1 0 1 2 2 1 1 2 2 1 0 0 0 0 0 0 0 0 0 0 0 0 0 0 0 0 0 0
0 0 0 0 0 0 0 0 1 2 3 3 7 12 15 12 7 4 3 5 5 4 2 2 3 3 1 1 1 1 0 0 1 0 0 0 0 0 0 0 0 0 0 0 0 0 0 0 0
0 0 0 0 0 0 0 0 0 1 3 4 6 7 8 8 6 5 6 8 9 6 3 4 5 5 3 2 1 1 1 0 1 1 0 0 0 0 0 0 0 0 0 0 0 0 0 0 0
0 0 0 0 0 0 0 0 0 1 3 4 4 4 5 5 5 6 8 9 9 7 5 4 5 5 5 4 2 2 2 1 1 1 1 0 0 0 0 0 0 0 0 0 0 0 0 0 0
0 0 0 0 0 0 0 0 0 1 3 4 3 4 6 6 5 5 7 9 9 9 8 5 4 4 4 4 4 3 2 1 2 2 1 1 1 0 0 0 0 0 1 1 0 0 0 0 0
0 0 0 0 0 0 0 0 0 1 2 3 3 5 8 10 9 7 8 10 11 11 10 7 5 4 4 4 4 4 2 2 2 2 2 2 2 2 1 1 1 1 3 3 1 0 0 0 0
0 0 0 0 0 0 0 0 0 1 2 3 4 6 10 14 14 11 11 12 14 15 13 9 7 7 6 5 5 5 5 5 4 3 4 4 4 4 4 3 3 4 5 4 2 1 0 0 0
0 0 0 0 0 0 0 0 0 0 1 2 4 8 12 14 15 15 15 15 17 21 21 17 13 13 12 10 10 10 9 10 10 9 7 7 6 5 5 5 5 5 5 4 3 2 1 1 1
0 0 0 0 0 0 0 0 0 0 0 0 3 7 11 13 17 21 22 22 23 26 27 25 23 22 19 17 17 17 17 17 18 17 14 11 9 7 6 6 6 5 5 4 3 3 3 1 1
0 0 0 0 0 0 0 0 0 0 0 0 1 4 8 12 19 25 30 29 27 28 29 29 29 28 25 22 23 25 26 26 25 23 19 15 13 10 8 7 7 6 6 5 5 4 4 3 3
0 0 0 0 0 0 0 0 0 0 0 0 0 2 5 10 17 25 31 32 28 27 28 28 29 29 27 27 29 31 30 28 28 26 21 17 14 11 10 10 11 11 8 8 7 6 7 8 8
0 0 0 0 0 0 0 0 0 0 0 0 1 3 7 11 18 24 29 31 27 24 25 27 30 31 31 32 35 34 29 27 27 27 23 18 14 12 12 13 15 15 14 13 12 12 13 14 13
0 0 0 0 0 0 0 0 0 0 0 0 2 6 10 15 21 25 29 32 29 24 24 29 35 38 37 36 35 33 29 27 27 27 24 19 14 12 13 14 14 15 17 17 17 17 17 16 16
0 0 0 0 0 0 0 0 0 0 0 0 2 5 9 16 22 25 29 33 33 30 30 34 39 41 39 36 33 31 28 26 25 25 22 17 12 11 11 11 11 11 12 13 14 16 16 15 15
0 0 0 0 0 0 0 0 0 1 1 1 2 5 9 16 22 23 25 31 34 33 33 37 40 41 37 33 31 31 28 23 21 21 17 11 8 7 8 8 8 8 7 7 8 11 14 14 13
0 0 0 0 0 0 0 0 0 1 2 2 3 7 11 15 19 20 20 25 30 31 32 35 38 38 33 30 31 31 28 23 20 19 14 8 6 7 7 7 7 7 7 5 6 10 13 13 12
0 0 0 0 0 0 0 0 0 1 1 2 3 6 10 12 16 18 20 22 26 28 30 32 34 34 33 32 31 30 28 24 21 17 13 9 8 8 6 6 6 7 6 5 6 9 11 11 11
0 0 0 0 0 0 0 0 0 0 0 0 2 6 9 11 16 20 22 23 24 25 26 27 29 32 34 32 29 28 27 23 20 17 13 11 9 7 6 5 6 5 4 4 5 6 6 6 7
0 0 0 0 0 0 0 0 0 0 0 0 2 7 9 12 19 23 25 25 24 24 24 23 26 30 32 30 27 26 25 22 19 17 14 12 9 6 6 6 6 5 4 4 4 4 3 4 4

GEFSSGP_con_probscp_180.txt.gz
Probability
2 9 23 32 25 9 1 0 0 0 0 0 0 0 0 0 0 0 0 0 0 0 0 0 0 0 0 0 0 0 0 0 0 0 0 0 0 0 0 0 0 0 0 0 0 0 0 0 0
3 10 20 24 17 6 0 0 0 0 0 0 0 0 0 0 0 0 0 0 0 0 0 0 0 0 0 0 0 0 0 0 0 0 0 0 0 0 0 0 0 0 0 0 0 0 0 0 0
6 10 15 16 9 2 0 0 0 0 0 0 0 0 0 0 0 0 0 0 0 0 0 1 1 0 0 0 0 0 0 0 0 0 0 0 0 0 0 0 0 0 0 0 0 0 0 0 0
10 11 12 8 3 0 0 0 0 0 0 0 0 0 0 0 0 0 0 0 1 1 1 1 2 1 0 0 0 0 0 0 0 0 0 0 0 0 0 0 0 0 0 0 0 0 0 0 0
8 9 7 3 0 0 0 0 0 0 0 0 0 0 0 0 0 0 0 0 1 2 1 1 2 1 0 0 0 0 0 0 0 0 0 0 0 0 0 0 0 0 0 0 0 0 0 0 0
5 5 3 0 0 0 0 0 0 0 0 0 0 0 0 0 0 0 0 0 1 2 2 1 1 1 0 0 0 0 0 0 0 0 0 0 0 0 0 0 0 0 0 0 0 0 0 0 0
5 3 1 0 0 0 0 0 0 0 0 0 1 2 1 0 0 0 0 0 1 3 3 1 1 0 0 0 0 0 0 0 0 0 0 0 0 0 0 0 0 0 0 0 0 0 0 0 0
3 1 0 0 0 0 0 0 1 1 0 0 1 3 3 1 0 0 0 1 2 3 3 2 1 1 0 0 0 0 0 0 0 0 0 0 0 0 0 0 0 0 0 0 0 0 0 0 0
1 0 0 0 0 0 0 1 1 1 0 0 3 6 7 4 2 3 3 4 4 4 3 3 3 2 1 1 1 1 0 0 0 0 0 0 0 0 0 0 0 0 0 0 0 0 0 0 0
0 0 0 0 0 0 0 1 1 1 2 4 8 11 11 8 6 7 7 7 7 6 4 3 3 2 1 1 1 1 0 0 0 0 0 0 0 0 0 0 0 0 0 0 0 0 0 0 0
0 0 0 0 0 0 0 1 2 3 6 11 14 15 14 12 10 9 9 9 9 7 5 4 3 3 1 1 1 1 1 1 1 1 1 0 0 0 0 0 0 0 0 0 0 0 0 0 0
0 0 0 0 0 0 0 0 1 4 9 15 19 18 15 13 11 9 9 11 11 9 7 6 5 4 3 2 1 1 1 0 1 2 3 1 0 0 0 0 0 0 0 0 0 0 0 0 0
0 0 0 0 0 0 0 0 1 5 11 17 22 21 17 12 10 11 13 16 16 13 10 9 9 7 5 4 3 3 2 1 2 4 5 3 1 1 2 2 1 1 0 0 0 0 0 0 0
0 0 0 0 0 0 0 0 2 6 13 18 22 23 19 13 12 16 21 25 23 17 13 12 12 10 8 7 6 5 3 3 4 7 9 8 5 5 6 5 3 1 1 2 2 0 0 0 0
0 0 0 0 0 1 1 1 3 7 12 18 21 22 21 19 20 24 29 32 29 22 17 15 14 14 13 12 9 6 5 7 10 13 15 14 10 9 10 8 6 3 2 4 4 1 0 0 0
0 0 0 0 0 1 1 2 4 6 10 15 19 21 24 27 28 30 34 36 34 30 27 22 19 19 19 17 13 9 9 13 16 16 18 19 16 12 11 10 8 7 6 7 6 3 1 0 0
0 0 0 0 0 0 0 1 3 4 6 10 15 21 29 34 34 37 39 40 41 41 37 31 26 25 25 23 20 17 17 20 20 18 18 20 18 15 12 10 10 11 11 10 7 5 3 1 0
0 0 0 0 0 0 0 0 1 2 4 7 14 23 34 39 39 42 43 44 47 49 48 41 34 33 33 32 30 26 25 26 26 22 23 23 21 18 14 11 11 12 14 13 10 8 7 4 2
0 0 0 0 0 0 0 0 1 1 3 8 15 26 37 43 43 44 46 47 51 56 58 52 45 44 45 44 39 34 32 33 31 30 32 31 27 22 16 12 12 14 15 15 14 12 11 8 6
0 0 0 0 0 0 0 1 2 2 3 8 15 26 38 45 48 49 50 51 56 62 63 59 56 57 57 53 45 39 37 37 37 40 41 37 31 24 17 13 14 15 16 19 20 18 14 11 9
0 0 0 0 0 0 0 2 5 6 7 8 12 22 34 43 51 55 55 58 62 66 67 66 67 67 63 58 50 45 44 43 44 47 46 38 30 24 19 15 15 15 18 22 23 21 17 13 11
0 0 0 0 0 0 0 2 7 11 11 9 8 15 27 38 49 58 61 63 66 67 71 74 75 73 68 61 56 53 52 51 49 49 46 38 29 23 20 18 17 17 19 20 21 20 20 16 14
0 0 0 0 0 0 0 1 6 11 12 8 5 12 23 35 46 58 65 66 65 66 70 76 78 76 71 65 62 59 56 53 51 48 44 37 30 25 22 20 19 19 17 16 18 21 22 18 15
0 0 0 0 0 0 0 1 3 8 10 7 6 12 23 34 43 56 66 69 66 65 69 75 78 77 74 70 66 62 57 55 53 49 42 36 31 27 23 21 22 21 16 14 17 21 22 19 17
0 0 0 0 0 0 0 1 3 6 7 7 7 12 22 33 42 53 66 70 68 68 71 76 79 77 75 72 67 62 58 55 53 48 40 35 31 28 24 22 25 23 18 16 17 19 19 17 16
0 0 0 0 0 0 0 2 5 7 8 8 8 12 23 32 41 52 63 67 67 69 72 76 77 74 71 68 63 59 56 51 48 44 38 34 31 27 24 25 25 23 19 15 15 16 16 16 15
0 0 0 0 0 0 1 2 6 9 9 8 9 14 23 31 40 48 54 58 61 65 68 69 69 67 65 61 57 54 51 46 42 39 36 33 29 25 24 25 25 22 19 15 13 13 14 15 16
0 0 0 0 0 0 0 2 6 11 11 10 11 16 24 32 40 45 48 52 55 58 62 62 60 59 58 55 51 51 48 43 39 37 35 32 29 26 25 25 24 23 19 15 13 12 12 12 13
0 0 0 0 0 0 0 1 5 11 13 14 15 19 27 35 41 46 49 51 49 50 53 55 53 52 52 50 50 51 49 44 40 38 35 33 30 29 27 25 24 21 17 14 12 11 9 7 7
0 0 0 0 0 0 1 2 5 9 14 17 18 22 29 37 42 48 51 50 47 44 47 51 50 49 48 48 49 52 51 46 42 40 37 34 33 31 29 27 25 21 15 12 11 9 6 3 3

GEFSSGP_con_probscp_186.txt.gz
Probability
3 2 1 1 1 1 0 0 0 0 0 0 0 0 0 0 0 0 0 0 0 0 0 1 2 1 0 0 0 0 0 0 0 0 0 0 0 0 0 0 0 0 0 0 0 0 0 0 0
1 1 1 1 1 0 0 0 0 0 0 0 0 0 0 0 0 0 0 0 0 0 0 1 2 1 0 0 0 0 0 0 0 0 0 0 0 0 0 0 0 0 0 0 0 0 0 0 0
0 0 1 1 0 0 0 1 2 1 0 0 0 0 0 0 0 0 0 0 0 0 0 1 2 1 0 0 0 0 0 0 0 0 0 0 0 0 0 0 0 0 0 0 0 0 0 0 0
0 0 0 0 0 0 1 2 3 4 2 1 0 0 0 0 0 0 0 0 0 0 0 2 2 1 0 0 0 0 0 0 0 0 0 0 0 0 0 0 0 0 0 0 0 0 0 0 0
1 1 0 0 0 1 2 3 5 5 4 2 1 0 0 0 1 1 1 0 0 0 0 1 3 3 1 1 1 0 0 0 0 0 0 0 0 0 0 0 0 0 0 0 0 0 0 0 0
0 0 0 0 0 1 2 3 5 7 5 2 1 0 0 1 3 4 2 1 0 0 1 1 2 3 2 2 1 0 0 0 0 0 0 0 0 0 0 0 0 0 0 0 0 0 0 0 0
0 0 0 0 0 0 1 2 5 7 5 2 1 0 0 2 6 7 4 2 0 1 2 2 2 1 1 1 1 0 0 0 0 0 0 0 0 0 0 0 0 0 0 0 0 0 0 0 0
1 1 0 0 0 0 0 1 3 5 4 3 2 2 2 4 9 10 7 2 0 1 2 3 1 0 0 0 0 0 0 0 0 0 0 0 0 0 0 0 0 0 0 0 0 0 0 0 0
2 1 0 0 0 0 0 0 1 2 4 4 5 6 7 11 16 18 13 6 2 1 1 1 0 0 0 0 0 0 0 0 0 0 0 0 0 0 0 0 0 0 0 0 0 0 0 0 0
3 2 0 0 0 0 0 0 1 1 3 5 8 9 12 18 23 25 21 14 7 2 0 0 0 0 0 0 0 0 0 0 0 0 0 0 0 0 0 0 0 0 0 0 0 0 0 0 0
3 2 1 0 0 0 0 0 1 2 3 7 11 12 14 18 22 25 24 20 12 4 0 0 0 0 0 0 0 0 0 0 0 0 0 0 0 0 0 0 0 0 0 0 0 0 0 0 0
2 2 1 0 0 1 1 1 1 2 4 9 12 13 14 15 17 19 21 21 16 8 3 1 1 1 0 0 1 1 1 0 0 0 0 1 1 1 0 0 0 0 0 0 0 0 0 0 0
1 1 0 0 0 1 1 1 1 3 6 9 13 14 13 12 13 15 17 18 16 12 8 5 3 1 0 0 1 2 1 0 0 0 1 2 2 2 1 0 0 0 0 0 0 0 0 0 0
0 0 0 0 0 0 1 2 4 8 9 9 10 12 10 10 11 13 16 17 17 17 16 12 6 3 0 0 1 1 1 0 0 1 1 3 3 2 1 0 0 1 1 0 0 0 0 0 0
0 0 0 0 0 1 2 4 7 12 12 9 9 9 8 9 11 14 17 19 20 23 22 17 12 7 3 2 1 1 0 0 0 1 2 3 4 3 2 2 1 2 2 1 1 0 0 0 0
0 0 0 0 0 1 3 5 8 14 15 12 10 10 9 10 13 16 20 22 24 26 24 20 15 11 8 6 4 3 1 0 1 2 3 4 6 6 5 4 3 3 3 2 1 0 0 0 0
0 0 0 0 0 0 2 4 9 14 18 16 14 13 12 12 16 21 23 25 26 26 24 20 17 15 12 9 6 4 3 2 2 3 5 6 7 8 7 5 4 3 3 1 1 1 0 0 0
0 0 0 0 0 0 1 4 9 14 18 19 17 18 18 19 23 27 29 28 26 25 24 22 20 17 14 11 7 5 4 4 4 5 7 8 8 8 6 4 3 3 2 1 0 1 0 0 0
0 0 0 0 0 1 3 6 9 13 17 20 21 24 27 27 28 32 34 32 28 26 27 27 25 21 19 16 12 9 6 5 5 6 7 8 9 8 6 4 3 3 1 0 0 0 0 0 0
0 0 0 0 0 2 5 7 8 11 14 19 22 27 33 33 32 36 39 37 33 30 31 31 30 28 25 23 20 16 10 6 6 6 6 7 9 10 7 4 3 2 1 1 1 1 1 1 0
0 0 0 0 0 2 4 5 6 8 12 17 22 29 36 37 37 38 39 39 38 36 35 34 33 32 30 27 26 23 16 10 8 7 8 9 11 11 9 6 4 3 3 3 3 2 2 2 1
0 0 0 0 0 1 1 1 3 7 11 16 24 32 38 39 39 38 37 39 42 42 40 39 37 35 33 30 29 27 21 14 10 9 9 10 11 11 10 7 6 5 5 5 4 3 3 3 2
0 0 0 0 0 0 0 0 2 5 10 16 23 30 35 38 36 35 36 38 40 43 43 41 39 36 34 32 29 25 21 15 11 9 10 10 10 10 10 8 7 6 5 4 3 2 2 2 2
0 0 0 0 0 0 0 0 1 3 8 14 19 23 31 37 36 34 36 38 39 42 41 39 37 35 34 32 28 23 19 14 10 9 9 8 8 9 9 8 6 4 4 2 1 1 1 1 1
0 0 0 0 0 0 0 0 0 2 6 12 18 24 31 39 39 36 37 41 44 43 39 36 35 34 32 31 28 24 19 15 11 10 10 9 10 10 9 7 5 3 2 1 0 0 0 0 0
0 0 0 0 0 0 0 0 1 3 6 12 20 28 34 40 42 39 39 42 44 42 39 36 34 33 31 29 26 24 21 16 13 12 11 11 11 11 9 7 6 4 2 1 0 0 0 1 1
0 0 0 0 0 0 0 0 1 4 7 12 20 28 35 39 42 41 40 38 37 37 36 36 35 33 31 27 25 24 23 19 16 15 13 12 11 10 10 9 8 7 4 2 1 1 0 0 0
0 0 0 0 0 0 0 0 1 4 8 13 17 24 33 38 40 40 38 32 29 30 33 34 36 35 31 28 27 27 25 22 19 17 15 12 10 10 9 9 8 7 5 3 2 1 0 1 1
0 0 0 0 0 0 0 0 1 4 9 13 15 21 32 37 37 36 33 28 26 28 32 35 37 36 33 30 29 28 26 23 20 18 15 12 10 10 9 8 7 5 3 3 2 1 0 1 2
0 0 0 0 0 0 0 1 2 5 9 13 16 21 31 36 35 34 31 27 26 30 34 36 38 37 34 32 30 28 25 22 20 17 15 12 11 10 9 8 6 4 2 2 2 1 0 1 1

GEFSSGP_con_probscp_192.txt.gz
Probability
3 1 0 0 0 0 0 0 0 0 0 0 0 0 0 0 0 0 0 0 1 2 1 0 1 0 0 0 0 0 0 0 0 0 0 0 0 0 0 0 0 0 0 0 0 0 0 0 0
1 0 0 0 0 0 0 0 0 0 0 0 0 0 0 0 0 0 0 0 1 2 1 0 1 0 0 0 0 0 0 0 0 0 0 0 0 0 0 0 0 0 0 0 0 0 0 0 0
0 0 0 0 0 0 0 0 1 1 0 0 0 0 0 0 0 0 0 0 1 1 1 0 0 0 0 0 0 0 0 0 0 0 0 0 0 0 0 0 0 0 0 0 0 0 0 0 0
0 0 0 0 0 0 0 1 2 2 1 1 0 0 0 0 0 0 0 0 1 1 0 0 0 0 0 0 0 0 0 0 0 0 0 0 0 0 0 0 0 0 0 0 0 0 0 0 0
0 0 0 0 0 0 1 2 3 3 3 2 1 0 0 0 0 0 0 0 0 0 0 1 2 1 0 0 0 0 0 0 0 0 0 0 0 0 0 0 0 0 0 0 0 0 0 0 0
0 0 0 0 0 0 1 2 3 3 3 3 1 0 0 0 0 0 0 0 0 0 0 2 3 2 1 0 0 0 0 0 0 0 0 0 0 0 0 0 0 0 0 0 0 0 0 0 0
0 0 0 0 0 0 0 1 2 3 3 3 2 1 0 0 0 0 0 0 0 0 0 1 2 3 2 0 0 0 0 0 0 0 0 0 0 0 0 0 0 0 0 0 0 0 0 0 0
0 0 0 0 0 0 0 0 1 2 3 3 2 1 1 2 1 1 1 1 1 0 0 0 2 2 1 0 0 0 0 0 0 0 0 0 0 0 0 0 0 0 0 0 0 0 0 0 0
0 0 0 0 0 0 0 0 0 1 3 3 3 2 3 6 5 4 3 2 2 1 0 0 2 2 1 0 0 0 0 0 0 0 0 0 0 0 0 0 0 0 0 0 0 0 0 0 0
0 0 0 0 0 0 0 0 0 1 2 4 5 7 9 11 9 6 4 3 3 2 1 0 1 1 1 0 0 0 0 0 0 0 0 0 0 0 0 0 0 0 0 0 0 0 0 0 0
0 0 0 0 0 0 0 0 0 1 2 5 9 15 17 14 11 7 4 2 2 2 1 0 0 0 0 0 0 0 0 0 0 0 0 0 0 0 0 0 0 0 0 0 0 0 0 0 0
0 0 0 0 0 0 0 0 0 0 2 6 13 21 22 16 12 9 5 2 0 1 1 0 0 0 0 0 0 0 0 0 0 0 0 0 0 0 0 0 0 0 0 0 0 0 0 0 0
0 0 0 0 0 0 0 0 0 1 3 7 15 21 22 18 15 12 8 4 1 0 0 0 0 0 0 0 0 0 0 0 0 0 0 1 1 0 0 0 0 0 0 0 0 0 0 0 0
0 0 0 0 0 0 0 0 0 1 3 7 13 17 17 17 17 15 12 8 4 1 0 0 0 0 0 0 0 0 0 0 0 0 1 2 2 1 1 1 1 1 1 0 0 0 0 0 0
0 0 0 0 0 0 0 0 0 1 3 7 9 10 11 13 14 15 15 12 7 2 1 0 0 0 0 0 0 0 0 0 0 1 1 2 3 3 2 2 2 2 1 0 0 0 0 0 0
0 0 0 0 0 0 0 1 1 2 3 4 6 7 7 9 11 11 11 11 8 5 3 1 0 0 0 0 0 0 0 0 0 0 0 1 2 3 2 2 2 1 1 0 0 0 0 0 0
0 0 0 0 0 0 0 1 2 3 3 3 4 6 6 7 7 7 6 7 7 6 4 3 1 0 0 0 0 0 0 0 0 0 0 0 1 2 2 1 1 0 0 0 0 0 0 0 0
0 0 0 0 0 0 0 1 3 3 3 2 3 5 6 6 6 6 4 4 4 5 6 5 3 2 1 2 1 0 0 0 0 1 1 2 3 3 2 2 1 1 0 0 0 0 0 0 0
0 0 0 0 0 0 1 2 3 3 2 3 4 5 6 7 7 6 4 4 4 6 8 8 6 5 5 5 3 1 0 0 1 2 3 5 6 5 3 2 2 1 0 0 0 0 0 0 0
0 0 0 0 0 0 1 2 2 2 2 4 6 7 7 9 8 6 4 5 5 7 10 10 8 9 10 10 7 4 3 2 2 2 3 4 6 7 5 2 1 1 0 0 0 0 0 0 0
0 0 0 0 0 0 1 1 1 1 1 4 7 9 9 9 7 4 4 5 6 8 10 10 10 12 15 15 13 10 7 6 5 3 2 2 3 5 4 2 1 1 0 0 0 0 1 1 1
0 0 0 0 0 0 0 0 0 0 1 4 7 8 8 7 5 2 3 4 5 7 9 9 11 15 18 18 17 15 11 9 7 4 2 2 2 2 1 2 2 1 0 0 1 1 1 2 2
0 0 0 0 0 0 0 0 0 0 1 3 5 4 5 7 6 3 3 5 6 6 8 10 13 17 19 19 19 17 14 11 8 5 3 2 2 1 1 2 3 2 1 1 1 1 1 1 1
0 0 0 0 0 0 0 0 0 0 1 3 3 3 5 8 8 6 6 9 10 10 10 13 15 18 20 21 20 18 16 14 10 6 4 4 3 2 2 3 4 4 2 1 1 1 0 0 0
0 0 0 0 0 0 0 0 0 0 1 2 2 2 4 8 10 9 11 15 16 13 13 15 17 19 20 21 18 16 16 16 13 9 7 7 7 6 5 4 4 4 3 2 1 0 0 0 0
0 0 0 0 0 0 0 0 0 0 1 2 2 2 4 8 10 11 13 17 18 16 15 15 17 18 19 18 16 14 14 14 13 10 9 9 9 8 5 3 2 2 2 1 1 0 0 0 0
0 0 0 0 0 0 0 0 0 0 1 2 2 3 6 9 9 10 13 16 17 17 16 15 15 16 15 15 15 14 13 12 10 10 8 8 7 6 3 2 1 1 1 1 0 0 0 0 0
0 0 0 0 0 0 0 0 0 1 2 1 2 5 9 10 10 12 15 16 16 18 16 14 12 11 11 14 16 15 13 10 10 9 7 5 4 2 1 1 1 2 2 1 0 0 0 0 0
0 0 0 0 0 0 0 0 0 1 2 1 3 7 11 11 11 15 18 19 17 16 13 10 9 8 9 13 16 15 13 10 9 7 5 3 1 0 1 1 1 2 3 2 1 0 0 0 1
0 0 0 0 0 0 0 0 0 0 1 2 4 8 10 10 11 15 20 20 17 13 10 8 8 7 8 12 15 16 14 11 8 6 4 3 2 1 0 1 1 2 3 2 1 0 0 1 1

GEFSSGP_con_probscp_198.txt.gz
Probability
3 3 5 6 3 1 0 0 0 0 0 0 0 0 0 0 0 0 0 0 0 0 0 0 0 0 0 0 0 0 0 0 0 0 0 0 0 0 0 0 0 0 0 0 0 0 0 0 0
2 2 3 3 1 0 0 0 0 0 0 0 0 0 0 0 0 0 0 0 0 0 0 0 0 0 0 0 0 0 0 0 0 0 0 0 0 0 0 0 0 0 0 0 0 0 0 0 0
0 1 1 1 0 0 0 0 0 0 0 0 0 0 0 0 0 0 0 0 0 0 1 1 1 0 0 0 0 0 0 0 0 0 0 0 0 0 0 0 0 0 0 0 0 0 0 0 0
0 0 0 0 0 0 0 0 0 0 0 0 0 0 0 0 0 0 0 0 0 0 1 2 1 0 0 0 0 0 0 0 0 0 0 0 0 0 0 0 0 0 0 0 0 0 0 0 0
0 0 0 0 0 0 0 0 0 0 0 0 0 0 0 0 0 0 0 0 0 0 1 1 1 0 0 0 0 0 0 0 0 0 0 0 0 0 0 0 0 0 0 0 0 0 0 0 0
0 0 0 0 0 0 0 0 0 0 0 0 0 0 0 0 0 0 0 0 0 0 0 0 0 0 0 0 0 0 0 0 0 0 0 0 0 0 0 0 0 0 0 0 0 0 0 0 0
0 0 0 0 0 0 0 0 0 1 1 1 0 0 1 1 1 1 0 0 0 0 0 0 0 0 0 0 0 0 0 0 0 0 0 0 0 0 0 0 0 0 0 0 0 0 0 0 0
0 0 0 0 0 0 0 0 0 1 2 2 1 0 1 3 3 2 1 0 0 0 0 0 0 0 0 0 0 0 0 0 0 0 0 0 0 0 0 0 0 0 0 0 0 0 0 0 0
0 0 0 0 0 0 0 0 0 1 3 3 1 1 3 4 4 3 2 1 1 1 1 0 0 0 0 0 0 0 1 0 0 0 0 0 0 0 0 0 0 0 0 0 0 0 0 0 0
0 0 0 0 0 0 0 0 1 2 3 3 3 4 6 7 5 4 3 3 4 3 2 1 0 0 0 0 0 0 0 0 0 0 0 0 0 0 0 0 0 0 0 0 0 0 0 0 0
0 0 0 0 0 0 0 0 1 2 3 3 4 7 9 8 6 4 3 4 5 4 3 2 0 0 0 0 0 0 0 0 0 0 0 0 0 0 0 0 0 0 0 0 0 0 0 0 0
0 0 0 0 0 0 0 0 0 1 1 3 6 9 10 8 6 6 4 4 5 4 3 2 0 0 0 0 0 0 0 0 0 0 0 0 0 0 0 0 0 0 0 0 0 0 0 0 0
0 0 0 0 0 0 0 0 0 0 1 4 7 10 10 8 7 8 6 4 4 4 3 1 0 0 0 1 1 0 0 0 0 0 0 1 2 1 1 0 1 1 1 0 0 0 0 0 0
0 0 0 0 0 0 0 1 1 1 1 4 8 9 8 6 6 8 7 4 3 3 2 1 0 0 0 1 1 0 0 0 0 0 0 2 3 3 2 2 2 2 2 1 1 0 0 0 0
0 0 0 0 0 0 0 1 2 2 2 4 6 7 7 5 5 6 6 4 3 2 1 0 0 1 1 1 1 0 0 0 0 0 0 1 2 3 3 3 3 3 2 2 2 1 0 0 0
0 0 0 0 0 0 0 1 2 3 2 3 5 6 7 5 4 4 6 5 4 3 2 2 2 3 3 2 1 0 0 0 0 1 1 1 1 2 4 4 4 3 2 2 2 1 1 1 1
0 0 0 0 0 0 0 1 2 3 3 3 3 6 8 6 4 5 7 7 6 5 7 8 8 7 6 4 3 2 1 2 2 3 3 2 1 2 4 5 4 3 3 3 2 1 2 2 2
0 0 0 0 0 0 0 1 2 4 4 4 4 6 8 6 5 6 6 6 6 9 12 14 14 15 13 10 9 8 6 5 5 6 5 4 3 3 4 6 5 4 5 4 2 1 2 3 3
0 0 0 0 0 0 0 0 2 4 6 7 7 9 8 6 6 7 5 4 7 12 16 17 19 21 20 17 16 16 14 11 9 8 6 5 4 4 5 7 6 5 6 5 3 3 3 4 4
0 0 0 0 0 0 0 0 1 3 6 7 9 10 7 6 8 8 6 4 7 13 16 18 21 24 24 23 21 20 18 14 11 10 8 6 5 4 6 8 8 7 8 7 6 6 6 6 6
0 0 0 0 0 0 0 0 0 2 4 6 7 7 6 5 6 7 5 3 5 9 14 17 20 24 26 23 21 21 19 15 13 13 11 7 6 6 8 9 10 10 11 10 9 7 7 8 9
0 0 0 0 0 0 0 0 0 1 3 4 5 6 5 4 4 4 2 1 3 6 11 16 20 25 25 22 21 21 19 14 13 15 11 8 8 9 10 10 11 12 13 12 9 6 6 7 8
0 0 0 0 0 0 0 0 0 1 2 3 5 6 5 5 5 3 0 0 2 5 9 16 22 27 28 26 24 23 19 14 13 14 12 9 9 11 12 12 12 13 13 11 9 6 4 4 6
0 1 1 0 0 0 0 0 1 1 1 2 5 6 5 7 8 5 3 3 5 8 13 19 25 30 34 33 29 26 22 16 15 16 14 10 9 12 13 13 13 12 11 11 10 7 4 3 3
1 1 1 0 0 0 0 0 1 0 0 1 4 5 6 9 11 9 8 10 13 15 19 24 29 33 36 36 32 28 24 18 16 17 15 11 10 11 12 12 12 10 9 10 11 8 5 3 2
0 1 1 0 0 0 0 0 0 0 0 1 3 4 6 9 12 12 13 15 18 20 22 27 31 33 34 33 31 28 23 17 15 15 15 13 11 10 11 11 10 9 9 10 10 8 7 6 4
0 0 0 0 0 0 0 0 0 0 0 1 3 4 6 9 12 12 13 15 19 21 22 26 30 31 28 26 26 24 21 18 15 15 16 16 14 11 11 12 12 11 10 10 9 8 8 7 6
0 0 0 0 0 0 0 0 0 1 1 3 5 6 6 8 11 13 14 16 18 19 20 22 25 25 22 20 20 19 17 17 17 18 20 19 16 13 12 14 13 11 10 9 9 8 7 6 5
0 0 0 0 0 0 0 0 1 2 3 5 7 9 9 10 13 17 18 17 17 18 20 21 22 21 19 18 17 15 14 14 16 18 19 18 16 12 12 12 11 10 9 9 9 9 7 5 4
0 0 1 1 1 0 0 1 2 3 4 5 8 9 10 13 17 20 19 18 16 17 21 23 22 20 18 17 16 14 12 12 15 16 16 15 14 11 11 11 9 9 9 10 10 10 7 4 3